period_start,C,m1,H,J0,J1,J2,J3,J4,J5,JA,JB,JC,JD,JJ,JK,JN,#
2015-11-09 00:03:16,0.16,2.18,0.00,13.27,17.99,21.90,15.14,50.21,1017.11,2071.96,2900.57,2708.03,2928.58,600.20,616.84,20.41,0000 0000 0000 0000 000000
2015-11-09 00:08:17,0.13,2.18,0.00,13.28,17.99,21.89,15.14,50.16,1017.12,2071.94,2898.37,2706.27,2926.60,600.21,616.77,20.46,0000 0000 0000 0000 000000
2015-11-09 00:13:18,0.14,2.19,0.00,13.27,17.99,21.90,15.16,50.13,1017.13,2071.92,2896.30,2704.58,2924.66,599.91,616.49,20.51,0000 0000 0000 0000 000000
2015-11-09 00:18:19,0.16,2.20,0.00,13.30,18.00,21.93,15.14,49.98,1017.14,2071.94,2893.72,2702.56,2922.41,600.17,616.79,20.56,0000 0000 0000 0000 000000
2015-11-09 00:23:21,0.16,2.21,0.00,13.30,18.01,21.89,15.13,50.00,1017.14,2071.89,2891.13,2700.44,2920.13,600.03,616.56,20.61,0000 0000 0000 0000 000000
2015-11-09 00:28:22,0.17,2.22,0.00,13.30,18.02,21.91,15.11,50.07,1017.48,2071.88,2888.50,2698.16,2917.58,599.71,616.45,20.66,0000 0000 0000 0000 000000
2015-11-09 00:33:23,0.15,2.22,0.00,13.33,18.02,21.90,15.07,50.00,1017.59,2071.87,2886.10,2696.20,2915.42,599.78,616.60,20.71,0000 0000 0000 0000 000000
2015-11-09 00:38:25,0.15,2.23,0.00,13.34,18.02,21.94,15.13,50.04,1017.60,2071.82,2883.67,2694.23,2913.17,600.07,616.81,20.76,0000 0000 0000 0000 000000
2015-11-09 00:43:26,0.18,2.24,0.00,13.34,18.02,21.94,15.15,50.27,1017.41,2071.81,2881.01,2691.91,2910.61,600.11,616.73,20.81,0000 0000 0000 0000 000000
2015-11-09 00:48:28,0.11,2.25,0.00,13.37,18.04,21.87,15.18,50.12,1017.15,2071.65,2878.73,2690.12,2908.45,600.02,616.42,20.86,0000 0000 0000 0000 000000
2015-11-09 00:53:29,0.20,2.25,0.00,13.39,18.04,21.93,15.18,50.38,1017.11,2071.55,2875.98,2687.72,2905.85,599.97,616.17,20.91,0000 0000 0000 0000 000000
2015-11-09 00:58:30,0.26,2.27,0.00,13.41,18.05,21.94,15.02,50.28,1017.10,2071.53,2872.64,2684.25,2902.36,599.76,616.16,20.96,0000 0000 0000 0000 000000
2015-11-09 01:03:31,0.24,2.28,0.00,13.43,18.06,21.96,15.13,50.51,1017.10,2071.39,2868.93,2680.41,2898.48,600.14,616.38,21.01,0000 0000 0000 0000 000000
2015-11-09 01:08:32,0.20,2.29,0.00,13.44,18.07,21.96,15.20,50.25,1017.12,2071.27,2865.82,2677.49,2895.38,600.25,616.48,21.06,0000 0000 0000 0000 000000
2015-11-09 01:13:34,0.22,2.31,0.00,13.44,18.07,21.94,15.12,50.24,1017.47,2071.11,2862.72,2674.24,2892.03,600.05,616.45,21.11,0000 0000 0000 0000 000000
2015-11-09 01:18:35,0.16,2.31,0.00,13.45,18.08,21.95,15.14,50.01,1017.54,2071.04,2860.16,2671.97,2889.52,600.07,616.60,21.16,0000 0000 0000 0000 000000
2015-11-09 01:23:37,0.17,2.32,0.00,13.47,18.09,21.98,15.17,50.20,1017.18,2071.02,2857.55,2669.92,2887.25,600.19,616.40,21.21,0000 0000 0000 0000 000000
2015-11-09 01:28:38,0.17,2.33,0.00,13.48,18.09,21.94,15.19,50.33,1017.11,2071.02,2854.95,2667.66,2884.69,600.45,616.59,21.26,0000 0000 0000 0000 000000
2015-11-09 01:33:39,0.15,2.34,0.00,13.45,18.10,21.93,15.22,50.33,1017.13,2071.01,2852.62,2665.62,2882.48,600.02,616.14,21.31,0000 0000 0000 0000 000000
2015-11-09 01:38:40,0.15,2.35,0.00,13.44,18.11,21.94,15.14,50.35,1017.13,2071.00,2850.20,2663.80,2880.32,600.22,616.38,21.36,0000 0000 0000 0000 000000
2015-11-09 01:43:42,0.18,2.36,0.00,13.47,18.12,21.99,15.17,50.36,1017.19,2071.01,2847.63,2661.55,2878.13,600.19,616.40,21.41,0000 0000 0000 0000 000000
2015-11-09 01:48:43,0.14,2.36,0.00,13.47,18.12,21.98,15.16,50.37,1017.55,2071.00,2845.25,2659.53,2875.89,599.95,616.43,21.46,0000 0000 0000 0000 000000
2015-11-09 01:53:44,0.19,2.37,0.00,13.47,18.12,22.02,15.14,50.01,1017.58,2071.00,2842.72,2657.36,2873.56,600.24,616.78,21.51,0000 0000 0000 0000 000000
2015-11-09 01:58:45,0.18,2.38,0.00,13.46,18.14,22.03,15.16,50.02,1017.75,2071.00,2839.98,2654.72,2871.02,600.12,616.75,21.56,0000 0000 0000 0000 000000
2015-11-09 02:03:47,0.18,2.39,0.00,13.48,18.14,21.99,15.13,49.91,1018.08,2070.99,2837.40,2652.36,2868.49,600.26,616.98,21.61,0000 0000 0000 0000 000000
2015-11-09 02:08:48,0.20,2.40,0.00,13.47,18.14,22.08,15.12,49.92,1017.96,2070.99,2834.75,2649.86,2865.78,600.03,616.62,21.66,0000 0000 0000 0000 000000
2015-11-09 02:13:49,0.20,2.41,0.00,13.48,18.16,22.11,15.17,50.05,1017.80,2070.99,2831.79,2647.14,2862.80,600.09,616.71,21.71,0000 0000 0000 0000 000000
2015-11-09 02:18:51,0.22,2.42,0.00,13.49,18.17,22.06,15.13,49.94,1017.89,2070.99,2828.69,2644.37,2859.75,599.99,616.59,21.76,0000 0000 0000 0000 000000
2015-11-09 02:23:52,0.19,2.43,0.00,13.47,18.17,22.08,15.13,49.97,1017.77,2070.99,2826.01,2641.87,2857.06,600.06,616.61,21.81,0000 0000 0000 0000 000000
2015-11-09 02:28:54,0.24,2.44,0.00,13.50,18.19,22.04,15.07,49.86,1017.59,2070.99,2822.92,2638.59,2853.70,599.54,616.00,21.86,0000 0000 0000 0000 000000
2015-11-09 02:33:55,0.21,2.46,0.00,13.50,18.19,22.12,15.15,49.84,1017.59,2070.98,2820.07,2635.84,2850.68,599.79,616.14,21.91,0000 0000 0000 0000 000000
2015-11-09 02:38:56,0.14,2.46,0.00,13.51,18.19,22.10,15.14,49.99,1017.58,2070.98,2817.44,2633.94,2848.28,599.95,616.30,21.96,0000 0000 0000 0000 000000
2015-11-09 02:43:58,0.16,2.47,0.00,13.50,18.21,22.10,15.19,49.98,1017.59,2070.99,2815.14,2632.41,2846.10,600.02,616.41,22.01,0000 0000 0000 0000 000000
2015-11-09 02:48:59,0.16,2.48,0.00,13.46,18.22,22.04,15.17,49.93,1017.56,2070.95,2812.66,2630.28,2843.77,600.04,616.47,22.06,0000 0000 0000 0000 000000
2015-11-09 02:54:00,0.16,2.49,0.00,13.48,18.22,22.12,15.12,49.91,1017.31,2070.94,2810.36,2628.36,2841.59,599.90,616.13,22.11,0000 0000 0000 0000 000000
2015-11-09 02:59:02,0.15,2.50,0.00,13.48,18.23,22.05,15.18,50.02,1017.07,2070.96,2808.20,2626.46,2839.68,600.19,616.27,22.16,0000 0000 0000 0000 000000
2015-11-09 03:04:03,0.13,2.50,0.00,13.49,18.24,22.08,15.11,50.12,1016.90,2070.87,2806.02,2624.71,2837.79,599.75,615.80,22.21,0000 0000 0000 0000 000000
2015-11-09 03:09:04,0.15,2.51,0.00,13.49,18.24,22.08,15.11,50.07,1017.10,2070.87,2803.72,2622.96,2835.66,599.96,616.05,22.26,0000 0000 0000 0000 000000
2015-11-09 03:14:06,0.13,2.52,0.00,13.51,18.25,22.11,15.10,50.06,1017.46,2070.81,2801.65,2621.19,2833.66,600.08,616.37,22.31,0000 0000 0000 0000 000000
2015-11-09 03:19:07,0.17,2.52,0.00,13.53,18.26,22.03,15.12,50.09,1017.25,2070.76,2799.32,2619.20,2831.50,600.10,616.19,22.36,0000 0000 0000 0000 000000
2015-11-09 03:24:08,0.20,2.53,0.00,13.53,18.27,22.10,15.19,50.22,1016.87,2070.63,2796.46,2616.66,2828.75,600.21,616.09,22.41,0000 0000 0000 0000 000000
2015-11-09 03:29:09,0.17,2.54,0.00,13.55,18.27,22.13,15.20,50.30,1016.62,2070.36,2793.64,2614.23,2826.21,599.93,615.68,22.46,0000 0000 0000 0000 000000
2015-11-09 03:34:10,0.21,2.55,0.00,13.56,18.27,22.13,15.11,50.07,1016.62,2070.33,2790.52,2611.42,2823.30,599.88,615.48,22.51,0000 0000 0000 0000 000000
2015-11-09 03:39:12,0.20,2.57,0.00,13.59,18.28,22.14,15.09,50.10,1016.60,2070.26,2787.44,2608.74,2820.41,599.92,615.50,22.57,0000 0000 0000 0000 000000
2015-11-09 03:44:13,0.27,2.58,0.00,13.59,18.29,22.17,15.13,50.23,1016.17,2070.24,2784.18,2605.45,2817.37,600.24,615.51,22.62,0000 0000 0000 0000 000000
2015-11-09 03:49:14,0.41,2.59,0.00,13.60,18.29,22.12,15.26,50.56,1015.93,2070.42,2779.31,2600.78,2812.69,600.51,615.69,22.67,0000 0000 0000 0000 000000
2015-11-09 03:54:15,0.44,2.62,0.00,13.60,18.29,22.22,15.09,50.70,1015.66,2070.46,2773.79,2595.03,2806.78,600.01,614.84,22.72,0000 0000 0000 0000 000000
2015-11-09 03:59:16,0.40,2.64,0.00,13.59,18.29,22.17,15.17,50.73,1015.58,2070.33,2768.97,2589.66,2801.36,600.21,615.18,22.77,0000 0000 0000 0000 000000
2015-11-09 04:04:18,0.40,2.66,0.00,13.61,18.29,22.16,15.17,50.86,1015.37,2070.28,2763.97,2584.15,2795.87,600.33,615.13,22.82,0000 0000 0000 0000 000000
2015-11-09 04:09:19,0.61,2.69,0.00,13.62,18.29,22.21,15.10,50.93,1015.24,2070.23,2757.32,2576.58,2788.12,599.88,614.62,22.87,0000 0000 0000 0000 000000
2015-11-09 04:14:20,0.53,2.71,0.00,13.63,18.30,22.20,15.14,50.94,1015.19,2070.17,2751.05,2569.36,2780.48,600.12,614.73,22.92,0000 0000 0000 0000 000000
2015-11-09 04:19:21,0.47,2.74,0.00,13.64,18.31,22.27,15.18,50.89,1015.25,2070.22,2745.61,2562.93,2773.88,600.35,615.02,22.97,0000 0000 0000 0000 000000
2015-11-09 04:24:23,0.35,2.76,0.00,13.64,18.32,22.22,15.19,50.95,1015.19,2070.17,2741.01,2558.22,2768.77,599.93,614.51,23.02,0000 0000 0000 0000 000000
2015-11-09 04:29:24,0.41,2.78,0.00,13.65,18.32,22.19,15.16,50.88,1015.32,2070.22,2736.29,2553.24,2763.45,600.24,614.93,23.07,0000 0000 0000 0000 000000
2015-11-09 04:34:25,0.34,2.80,0.00,13.65,18.32,22.17,15.06,50.75,1015.61,2070.13,2732.13,2548.29,2758.96,599.79,614.69,23.12,0000 0000 0000 0000 000000
2015-11-09 04:39:26,0.30,2.81,0.00,13.65,18.32,22.16,15.16,50.73,1015.62,2070.07,2728.47,2544.39,2755.14,600.44,615.31,23.17,0000 0000 0000 0000 000000
2015-11-09 04:44:27,0.27,2.82,0.00,13.67,18.33,22.23,15.09,50.69,1015.62,2070.12,2725.05,2540.98,2751.84,599.83,614.62,23.22,0000 0000 0000 0000 000000
2015-11-09 04:49:28,0.26,2.84,0.00,13.67,18.34,22.21,15.16,50.73,1015.69,2070.10,2721.55,2537.68,2748.39,600.08,614.91,23.27,0000 0000 0000 0000 000000
2015-11-09 04:54:30,0.22,2.85,0.00,13.65,18.34,22.26,15.14,50.78,1015.78,2070.06,2718.57,2534.87,2745.36,600.22,615.15,23.32,0000 0000 0000 0000 000000
2015-11-09 04:59:31,0.25,2.87,0.00,13.64,18.34,22.25,15.20,50.55,1016.06,2070.06,2715.48,2531.85,2742.21,600.07,615.22,23.37,0000 0000 0000 0000 000000
2015-11-09 05:04:32,0.26,2.88,0.00,13.64,18.35,22.30,15.07,50.73,1015.85,2070.02,2712.13,2528.66,2738.78,599.87,614.97,23.42,0000 0000 0000 0000 000000
2015-11-09 05:09:34,0.19,2.89,0.00,13.63,18.35,22.27,15.18,50.80,1015.76,2070.02,2709.26,2525.95,2736.06,600.15,615.24,23.47,0000 0000 0000 0000 000000
2015-11-09 05:14:35,0.16,2.90,0.00,13.62,18.36,22.29,15.19,50.48,1016.06,2070.02,2706.99,2524.08,2733.98,600.44,615.55,23.52,0000 0000 0000 0000 000000
2015-11-09 05:19:37,0.15,2.91,0.00,13.61,18.37,22.29,15.13,50.39,1016.12,2070.01,2704.86,2522.12,2731.91,600.19,615.44,23.57,0000 0000 0000 0000 000000
2015-11-09 05:24:38,0.15,2.91,0.00,13.59,18.37,22.32,15.12,50.48,1016.12,2070.00,2702.90,2520.36,2730.04,600.03,615.28,23.62,0000 0000 0000 0000 000000
2015-11-09 05:29:40,0.17,2.92,0.00,13.59,18.37,22.35,15.22,50.47,1016.13,2070.00,2700.51,2518.29,2727.80,600.07,615.33,23.67,0000 0000 0000 0000 000000
2015-11-09 05:34:41,0.19,2.93,0.00,13.57,18.37,22.33,15.18,50.55,1016.15,2070.01,2698.12,2516.13,2725.51,600.30,615.66,23.72,0000 0000 0000 0000 000000
2015-11-09 05:39:42,0.21,2.94,0.00,13.59,18.37,22.34,15.20,50.70,1016.21,2070.00,2695.31,2513.63,2722.86,600.05,615.46,23.77,0000 0000 0000 0000 000000
2015-11-09 05:44:44,0.25,2.95,0.00,13.57,18.37,22.29,15.17,50.80,1016.07,2070.00,2692.28,2510.75,2719.79,600.22,615.52,23.82,0000 0000 0000 0000 000000
2015-11-09 05:49:45,0.31,2.97,0.00,13.56,18.37,22.30,15.12,50.73,1015.73,2070.00,2688.72,2507.14,2715.90,599.94,615.11,23.87,0000 0000 0000 0000 000000
2015-11-09 05:54:46,0.33,2.99,0.00,13.57,18.37,22.28,15.15,51.05,1015.63,2070.00,2684.71,2503.21,2711.66,600.16,615.18,23.92,0000 0000 0000 0000 000000
2015-11-09 05:59:47,0.37,3.01,0.00,13.54,18.37,22.30,15.11,50.68,1015.66,2070.00,2680.15,2498.60,2706.86,600.00,615.12,23.97,0000 0000 0000 0000 000000
2015-11-09 06:04:49,0.25,3.02,0.00,13.55,18.37,22.28,15.30,51.05,1015.80,2070.00,2676.92,2495.28,2703.52,600.36,615.43,24.02,0000 0000 0000 0000 000000
2015-11-09 06:09:50,0.18,3.03,0.00,13.58,18.37,22.33,15.10,50.47,1016.28,2070.00,2674.27,2492.87,2700.95,600.07,615.49,24.07,0000 0000 0000 0000 000000
2015-11-09 06:14:52,0.16,3.04,0.00,13.57,18.36,22.26,15.14,50.26,1016.72,2070.00,2672.13,2491.02,2698.94,600.30,616.01,24.12,0000 0000 0000 0000 000000
2015-11-09 06:19:53,0.13,3.05,0.00,13.58,18.36,22.28,15.22,50.38,1016.88,2069.99,2670.01,2489.45,2697.21,600.16,615.89,24.17,0000 0000 0000 0000 000000
2015-11-09 06:24:54,0.12,3.05,0.00,13.57,18.35,22.34,15.11,50.16,1017.10,2069.99,2668.00,2488.04,2695.59,600.25,616.10,24.22,0000 0000 0000 0000 000000
2015-11-09 06:29:56,0.12,3.06,0.00,13.56,18.34,22.34,15.13,50.05,1017.12,2069.99,2666.31,2486.76,2694.20,599.70,615.70,24.27,0000 0000 0000 0000 000000
2015-11-09 06:34:57,0.12,3.06,0.00,13.57,18.34,22.31,15.12,50.25,1017.16,2069.99,2664.48,2485.57,2692.75,599.83,615.80,24.32,0000 0000 0000 0000 000000
2015-11-09 06:39:58,0.12,3.07,0.00,13.55,18.34,22.30,15.13,50.01,1017.12,2069.99,2662.58,2484.06,2691.13,599.92,616.00,24.37,0000 0000 0000 0000 000000
2015-11-09 06:45:00,0.14,3.08,0.00,13.56,18.34,22.25,15.15,49.92,1017.14,2069.99,2660.44,2482.55,2689.48,599.97,616.07,24.42,0000 0000 0000 0000 000000
2015-11-09 06:50:01,0.12,3.09,0.00,13.55,18.34,22.25,15.14,50.07,1017.15,2069.99,2658.45,2481.15,2687.85,600.17,616.18,24.47,0000 0000 0000 0000 000000
2015-11-09 06:55:02,0.14,3.09,0.00,13.56,18.34,22.29,15.12,50.22,1017.10,2069.99,2656.53,2479.73,2686.35,599.92,615.88,24.52,0000 0000 0000 0000 000000
2015-11-09 07:00:03,0.13,3.10,0.00,13.57,18.34,22.30,15.15,50.13,1017.10,2069.99,2654.50,2478.34,2684.71,600.17,616.21,24.57,0000 0000 0000 0000 000000
2015-11-09 07:05:04,0.13,3.11,0.00,13.57,18.34,22.26,15.09,50.00,1017.12,2069.99,2652.50,2476.87,2683.12,599.83,615.78,24.62,0000 0000 0000 0000 000000
2015-11-09 07:10:06,0.13,3.11,0.00,13.58,18.34,22.30,15.18,50.17,1017.36,2069.99,2650.48,2475.43,2681.50,599.72,615.81,24.67,0000 0000 0000 0000 000000
2015-11-09 07:15:07,0.14,3.12,0.00,13.58,18.34,22.30,15.11,50.13,1017.52,2069.99,2648.43,2473.89,2679.88,599.90,616.08,24.72,0000 0000 0000 0000 000000
2015-11-09 07:20:08,0.13,3.13,0.00,13.59,18.34,22.28,15.11,50.23,1017.59,2069.99,2646.51,2472.43,2678.31,599.75,616.00,24.77,0000 0000 0000 0000 000000
2015-11-09 07:25:10,0.13,3.13,0.00,13.59,18.34,22.25,15.12,50.14,1017.53,2069.98,2644.59,2470.97,2676.68,600.05,616.19,24.82,0000 0000 0000 0000 000000
2015-11-09 07:30:11,0.14,3.14,0.00,13.61,18.34,22.30,15.13,50.13,1017.57,2069.99,2642.54,2469.59,2675.08,599.72,615.82,24.87,0000 0000 0000 0000 000000
2015-11-09 07:35:13,0.12,3.15,0.00,13.62,18.34,22.29,15.15,50.14,1017.43,2069.97,2640.59,2468.19,2673.47,599.78,615.83,24.92,0000 0000 0000 0000 000000
2015-11-09 07:40:14,0.14,3.15,0.00,13.62,18.34,22.23,15.13,50.17,1017.55,2069.98,2638.71,2466.76,2671.94,599.85,616.02,24.97,0000 0000 0000 0000 000000
2015-11-09 07:45:16,0.15,3.16,0.00,13.64,18.34,22.26,15.13,50.35,1017.29,2069.96,2636.65,2465.09,2670.15,599.90,615.67,25.02,0000 0000 0000 0000 000000
2015-11-09 07:50:17,0.14,3.17,0.00,13.62,18.34,22.25,15.09,50.18,1017.19,2069.97,2634.56,2463.51,2668.34,599.98,615.86,25.07,0000 0000 0000 0000 000000
2015-11-09 07:55:18,0.15,3.18,0.00,13.65,18.34,22.27,15.15,50.11,1017.47,2069.98,2632.30,2461.89,2666.66,599.85,615.82,25.12,0000 0000 0000 0000 000000
2015-11-09 08:00:19,0.14,3.18,0.00,13.65,18.34,22.33,15.18,50.24,1017.55,2069.97,2630.17,2460.40,2664.89,600.39,616.50,25.17,0000 0000 0000 0000 000000
2015-11-09 08:05:20,0.14,3.19,0.00,13.66,18.34,22.31,15.19,50.17,1017.59,2069.98,2628.13,2458.86,2663.25,600.19,616.16,25.22,0000 0000 0000 0000 000000
2015-11-09 08:10:22,0.13,3.20,0.00,13.67,18.35,22.33,15.16,50.12,1017.60,2069.97,2626.31,2457.53,2661.67,599.98,616.13,25.27,0000 0000 0000 0000 000000
2015-11-09 08:15:23,0.12,3.20,0.00,13.67,18.36,22.27,15.19,50.16,1017.60,2069.97,2624.44,2456.19,2660.13,600.23,616.14,25.32,0000 0000 0000 0000 000000
2015-11-09 08:20:24,0.14,3.21,0.00,13.69,18.37,22.24,15.11,50.27,1017.60,2069.95,2622.70,2454.68,2658.50,600.13,616.17,25.37,0000 0000 0000 0000 000000
2015-11-09 08:25:26,0.13,3.22,0.00,13.68,18.37,22.26,15.20,50.35,1017.59,2069.93,2620.78,2453.28,2656.82,599.79,615.78,25.42,0000 0000 0000 0000 000000
2015-11-09 08:30:27,0.15,3.23,0.00,13.63,18.37,22.28,15.22,50.44,1017.52,2069.92,2618.71,2451.73,2655.16,600.40,616.44,25.47,0000 0000 0000 0000 000000
2015-11-09 08:35:28,0.23,3.23,0.00,13.62,18.37,22.32,15.13,50.89,1017.12,2069.92,2615.88,2449.56,2652.65,600.07,615.97,25.52,0000 0000 0000 0000 000000
2015-11-09 08:40:29,0.19,3.25,0.00,13.61,18.37,22.25,15.18,50.71,1017.18,2069.81,2613.21,2447.20,2650.06,600.08,615.94,25.57,0000 0000 0000 0000 000000
2015-11-09 08:45:30,0.16,3.26,0.00,13.62,18.37,22.32,15.15,50.54,1017.41,2069.73,2610.72,2445.17,2647.80,600.02,616.06,25.62,0000 0000 0000 0000 000000
2015-11-09 08:50:31,0.14,3.26,0.00,13.64,18.37,22.31,15.17,50.40,1017.60,2069.55,2608.53,2443.46,2645.96,600.07,616.16,25.67,0000 0000 0000 0000 000000
2015-11-09 08:55:33,0.16,3.27,0.00,13.63,18.37,22.37,15.14,50.58,1017.57,2069.46,2606.30,2441.68,2643.92,599.97,616.05,25.72,0000 0000 0000 0000 000000
2015-11-09 09:00:35,0.18,3.28,0.00,13.65,18.37,22.36,15.17,50.52,1017.40,2069.31,2603.74,2439.66,2641.66,599.91,615.76,25.77,0000 0000 0000 0000 000000
2015-11-09 09:05:36,0.15,3.29,0.00,13.63,18.37,22.30,15.10,50.33,1017.52,2069.18,2601.33,2437.60,2639.46,599.61,615.67,25.82,0000 0000 0000 0000 000000
2015-11-09 09:10:38,0.16,3.30,0.00,13.64,18.37,22.34,15.13,50.23,1017.62,2069.27,2599.32,2436.02,2637.73,599.77,615.86,25.88,0000 0000 0000 0000 000000
2015-11-09 09:15:39,0.14,3.30,0.00,13.63,18.37,22.33,15.22,50.30,1017.81,2069.33,2597.29,2434.58,2636.06,599.89,616.15,25.93,0000 0000 0000 0000 000000
2015-11-09 09:20:40,0.13,3.31,0.00,13.63,18.37,22.37,15.13,50.23,1017.78,2069.26,2595.16,2433.07,2634.42,599.98,616.13,25.98,0000 0000 0000 0000 000000
2015-11-09 09:25:42,0.15,3.32,0.00,13.65,18.37,22.34,15.16,50.13,1017.61,2069.20,2593.15,2431.65,2632.75,600.33,616.40,26.03,0000 0000 0000 0000 000000
2015-11-09 09:30:43,0.15,3.33,0.00,13.64,18.37,22.36,15.08,50.21,1017.63,2069.35,2591.05,2430.31,2631.09,599.85,615.87,26.08,0000 0000 0000 0000 000000
2015-11-09 09:35:44,0.15,3.33,0.00,13.65,18.37,22.35,15.14,50.16,1017.81,2069.41,2588.93,2428.66,2629.36,600.12,616.33,26.13,0000 0000 0000 0000 000000
2015-11-09 09:40:46,0.15,3.34,0.00,13.61,18.37,22.29,15.07,50.35,1017.78,2069.23,2586.74,2426.93,2627.46,599.83,616.02,26.18,0000 0000 0000 0000 000000
2015-11-09 09:45:47,0.18,3.35,0.00,13.59,18.37,22.27,15.14,50.65,1017.61,2069.13,2584.40,2424.92,2625.35,599.85,616.03,26.23,0000 0000 0000 0000 000000
2015-11-09 09:50:48,0.19,3.36,0.00,13.60,18.37,22.33,15.19,50.84,1017.60,2069.13,2581.90,2422.81,2623.19,599.94,616.15,26.28,0000 0000 0000 0000 000000
2015-11-09 09:55:49,0.21,3.37,0.00,13.58,18.37,22.28,15.14,51.04,1017.53,2069.05,2579.26,2420.54,2620.86,599.99,616.28,26.33,0000 0000 0000 0000 000000
2015-11-09 10:00:51,0.21,3.38,0.00,13.59,18.37,22.33,15.17,50.98,1017.29,2069.09,2576.74,2418.34,2618.44,600.16,616.11,26.38,0000 0000 0000 0000 000000
2015-11-09 10:05:52,0.24,3.39,0.00,13.58,18.37,22.34,15.09,50.91,1017.12,2069.12,2573.68,2415.72,2615.60,599.64,615.56,26.43,0000 0000 0000 0000 000000
2015-11-09 10:10:53,0.34,3.41,0.00,13.53,18.37,22.33,15.18,51.40,1017.11,2069.05,2569.84,2412.16,2611.83,600.03,616.17,26.48,0000 0000 0000 0000 000000
2015-11-09 10:15:54,0.32,3.42,0.00,13.52,18.36,22.34,15.18,51.08,1017.12,2069.12,2566.03,2408.40,2607.97,600.05,616.06,26.53,0000 0000 0000 0000 000000
2015-11-09 10:20:56,0.27,3.44,0.00,13.49,18.34,22.33,15.15,50.85,1017.16,2069.09,2562.69,2405.17,2604.70,599.89,615.97,26.58,0000 0000 0000 0000 000000
2015-11-09 10:25:57,0.22,3.45,0.00,13.50,18.34,22.35,15.23,50.74,1017.51,2069.08,2559.85,2402.50,2601.93,600.10,616.43,26.63,0000 0000 0000 0000 000000
2015-11-09 10:30:58,0.15,3.46,0.00,13.52,18.34,22.32,15.20,50.63,1017.58,2069.06,2557.94,2400.77,2599.95,600.23,616.53,26.68,0000 0000 0000 0000 000000
2015-11-09 10:35:59,0.16,3.47,0.00,13.51,18.34,22.32,15.15,50.69,1017.55,2069.07,2555.73,2399.13,2598.14,600.03,616.34,26.73,0000 0000 0000 0000 000000
2015-11-09 10:41:01,0.24,3.48,0.00,13.52,18.33,22.34,15.19,50.80,1017.36,2069.09,2552.92,2396.70,2595.57,600.30,616.52,26.78,0000 0000 0000 0000 000000
2015-11-09 10:46:02,0.28,3.49,0.00,13.50,18.32,22.31,15.18,50.83,1017.35,2069.18,2549.78,2393.83,2592.52,600.23,616.35,26.83,0000 0000 0000 0000 000000
2015-11-09 10:51:04,0.25,3.50,0.00,13.49,18.32,22.27,15.21,50.98,1017.43,2069.15,2546.65,2390.91,2589.43,600.04,616.27,26.88,0000 0000 0000 0000 000000
2015-11-09 10:56:05,0.22,3.52,0.00,13.49,18.32,22.31,15.16,50.88,1017.46,2069.28,2544.09,2388.60,2587.00,600.18,616.53,26.93,0000 0000 0000 0000 000000
2015-11-09 11:01:07,0.22,3.53,0.00,13.47,18.31,22.28,15.12,51.07,1017.62,2069.26,2541.40,2386.15,2584.29,599.67,616.13,26.98,0000 0000 0000 0000 000000
2015-11-09 11:06:08,0.17,3.54,0.00,13.49,18.30,22.28,15.21,50.86,1018.03,2069.40,2539.28,2384.22,2582.33,599.98,616.69,27.03,0000 0000 0000 0000 000000
2015-11-09 11:11:09,0.14,3.54,0.00,13.49,18.29,22.28,15.18,50.58,1018.12,2069.29,2537.32,2382.67,2580.59,600.12,616.85,27.08,0000 0000 0000 0000 000000
2015-11-09 11:16:11,0.14,3.55,0.00,13.47,18.29,22.28,15.11,50.59,1018.47,2069.34,2535.36,2381.24,2578.85,599.95,616.93,27.13,0000 0000 0000 0000 000000
2015-11-09 11:21:12,0.16,3.56,0.00,13.49,18.29,22.27,15.14,50.63,1018.58,2069.26,2533.13,2379.57,2577.03,599.72,616.71,27.18,0000 0000 0000 0000 000000
2015-11-09 11:26:13,0.14,3.57,0.00,13.48,18.29,22.26,15.21,50.58,1018.75,2069.22,2531.28,2377.99,2575.54,600.01,617.07,27.23,0000 0000 0000 0000 000000
2015-11-09 11:31:15,0.15,3.58,0.00,13.48,18.28,22.21,15.24,50.56,1018.70,2069.25,2529.23,2376.34,2573.88,600.22,617.21,27.28,0000 0000 0000 0000 000000
2015-11-09 11:36:16,0.12,3.58,0.00,13.48,18.27,22.24,15.17,50.44,1018.64,2069.20,2527.53,2374.90,2572.43,600.05,617.11,27.33,0000 0000 0000 0000 000000
2015-11-09 11:41:17,0.15,3.59,0.00,13.47,18.27,22.26,15.14,50.48,1018.57,2069.20,2525.70,2373.60,2570.91,599.70,616.74,27.38,0000 0000 0000 0000 000000
2015-11-09 11:46:19,0.15,3.60,0.00,13.49,18.27,22.27,15.20,50.50,1018.46,2069.44,2523.83,2372.46,2569.43,600.26,617.16,27.43,0000 0000 0000 0000 000000
2015-11-09 11:51:20,0.12,3.60,0.00,13.47,18.27,22.24,15.22,50.39,1018.45,2069.26,2521.68,2370.93,2567.76,600.25,617.09,27.48,0000 0000 0000 0000 000000
2015-11-09 11:56:22,0.17,3.61,0.00,13.48,18.27,22.23,15.18,50.38,1018.57,2069.32,2519.59,2369.46,2566.05,600.41,617.40,27.53,0000 0000 0000 0000 000000
2015-11-09 12:01:23,0.14,3.62,0.00,13.48,18.27,22.19,15.11,50.51,1018.57,2069.51,2517.72,2368.02,2564.42,599.69,616.68,27.58,0000 0000 0000 0000 000000
2015-11-09 12:06:24,0.12,3.63,0.00,13.49,18.27,22.21,15.21,50.52,1018.56,2069.50,2515.86,2366.82,2562.88,600.33,617.34,27.63,0000 0000 0000 0000 000000
2015-11-09 12:11:25,0.14,3.63,0.00,13.50,18.27,22.23,15.16,50.54,1018.48,2069.36,2513.86,2365.47,2561.30,599.80,616.64,27.68,0000 0000 0000 0000 000000
2015-11-09 12:16:27,0.20,3.64,0.00,13.48,18.27,22.27,15.19,50.64,1018.54,2069.62,2511.78,2363.88,2559.61,599.91,616.91,27.73,0000 0000 0000 0000 000000
2015-11-09 12:21:28,0.15,3.65,0.00,13.44,18.27,22.21,15.20,50.71,1018.27,2069.63,2509.67,2362.21,2558.01,600.07,617.03,27.78,0000 0000 0000 0000 000000
2015-11-09 12:26:29,0.25,3.66,0.00,13.43,18.27,22.20,15.17,50.73,1018.08,2069.82,2507.24,2360.12,2555.71,600.19,617.12,27.83,0000 0000 0000 0000 000000
2015-11-09 12:31:30,0.22,3.68,0.00,13.45,18.27,22.19,15.18,50.67,1018.34,2069.83,2504.53,2357.47,2553.11,600.03,616.93,27.88,0000 0000 0000 0000 000000
2015-11-09 12:36:32,0.17,3.68,0.00,13.46,18.26,22.18,15.16,50.77,1018.47,2069.76,2502.37,2355.64,2550.94,600.02,617.10,27.93,0000 0000 0000 0000 000000
2015-11-09 12:41:33,0.12,3.69,0.00,13.46,18.25,22.21,15.15,50.47,1018.58,2069.58,2500.33,2353.92,2549.10,599.99,617.08,27.98,0000 0000 0000 0000 000000
2015-11-09 12:46:34,0.12,3.70,0.00,13.49,18.24,22.18,15.12,50.44,1018.71,2069.40,2498.61,2352.61,2547.61,599.70,616.84,28.03,0000 0000 0000 0000 000000
2015-11-09 12:51:36,0.13,3.71,0.00,13.48,18.24,22.23,15.20,50.38,1018.61,2069.45,2496.59,2351.15,2545.97,600.12,617.11,28.08,0000 0000 0000 0000 000000
2015-11-09 12:56:37,0.15,3.71,0.00,13.49,18.24,22.19,15.16,50.38,1018.58,2069.42,2494.60,2349.55,2544.32,600.21,617.18,28.13,0000 0000 0000 0000 000000